ASA1341 LROP-UAIT

Flight info

Callsign ASA1341
Flight time N/A
Altitude 35000
Route IDARU DCT NEDSI T343 UDROS UM859 KARDE UN644 ROLIN N644 LAGAS M747 BARAD/N0464F370 M747 SUBUT T916 BALUN/K0845F370 T916 KUNAS Z627 OFFES N147 KARIM KARIM1A
Aircraft B738/M-SDE2E3FGHIRWXY/LB1

Departure

Time 2026-05-05 18:23
Airport Bucharest Henri Coandă International Airport (LROP)

Arrival

Time N/A
Airport Hazrat Sultan International Airport (UAIT)
Time Latitude Longitude Altitude Speed Heading
2026-05-05 17:48 44.57000 26.07901 320 ft 0 kts 354°
2026-05-05 18:10 44.56992 26.07902 321 ft 4 kts 354°
2026-05-05 18:10 44.56965 26.07906 321 ft 4 kts 354°
2026-05-05 18:10 44.56943 26.07909 319 ft 4 kts 354°
2026-05-05 18:10 44.56929 26.07916 319 ft 3 kts 306°
2026-05-05 18:11 44.56918 26.07948 320 ft 4 kts 279°
2026-05-05 18:11 44.56914 26.07984 319 ft 3 kts 286°
2026-05-05 18:11 44.56913 26.07988 319 ft 1 kts 288°
2026-05-05 18:14 44.56917 26.07986 320 ft 1 kts 327°
2026-05-05 18:14 44.56921 26.07990 318 ft 1 kts 21°
2026-05-05 18:14 44.56927 26.08018 320 ft 6 kts 77°
2026-05-05 18:15 44.56935 26.08105 319 ft 12 kts 84°
2026-05-05 18:15 44.56944 26.08236 321 ft 14 kts 84°
2026-05-05 18:15 44.56962 26.08359 320 ft 12 kts 55°
2026-05-05 18:15 44.57040 26.08383 319 ft 12 kts 354°
2026-05-05 18:16 44.57122 26.08371 321 ft 12 kts 353°
2026-05-05 18:16 44.57201 26.08366 321 ft 11 kts 17°
2026-05-05 18:16 44.57232 26.08461 321 ft 11 kts 73°
2026-05-05 18:16 44.57301 26.08494 321 ft 12 kts 354°
2026-05-05 18:17 44.57396 26.08480 319 ft 15 kts 354°
2026-05-05 18:17 44.57491 26.08525 321 ft 16 kts 65°
2026-05-05 18:17 44.57508 26.08680 321 ft 17 kts 84°
2026-05-05 18:17 44.57522 26.08873 321 ft 22 kts 84°
2026-05-05 18:18 44.57540 26.09104 320 ft 25 kts 84°
2026-05-05 18:18 44.57558 26.09355 319 ft 27 kts 84°
2026-05-05 18:18 44.57578 26.09606 319 ft 25 kts 84°
2026-05-05 18:18 44.57595 26.09842 319 ft 23 kts 84°
2026-05-05 18:19 44.57612 26.10065 317 ft 23 kts 84°
2026-05-05 18:19 44.57626 26.10280 317 ft 22 kts 85°
2026-05-05 18:19 44.57644 26.10496 317 ft 23 kts 84°
2026-05-05 18:19 44.57661 26.10743 316 ft 27 kts 84°
2026-05-05 18:20 44.57681 26.11006 316 ft 27 kts 84°
2026-05-05 18:20 44.57700 26.11265 313 ft 26 kts 84°
2026-05-05 18:20 44.57719 26.11507 315 ft 24 kts 84°
2026-05-05 18:20 44.57737 26.11734 315 ft 23 kts 84°
2026-05-05 18:21 44.57754 26.11952 314 ft 22 kts 84°
2026-05-05 18:21 44.57770 26.12165 314 ft 22 kts 84°
2026-05-05 18:21 44.57786 26.12371 313 ft 21 kts 83°
2026-05-05 18:21 44.57801 26.12571 312 ft 20 kts 84°
2026-05-05 18:22 44.57816 26.12765 312 ft 18 kts 83°
2026-05-05 18:22 44.57877 26.12855 310 ft 14 kts 343°
2026-05-05 18:22 44.57964 26.12772 311 ft 16 kts 319°
2026-05-05 18:22 44.57977 26.12593 312 ft 33 kts 264°
2026-05-05 18:23 44.57927 26.11941 314 ft 101 kts 264°
2026-05-05 18:23 44.57832 26.10671 317 ft 158 kts 264°
2026-05-05 18:23 44.57705 26.08942 541 ft 188 kts 264°
2026-05-05 18:23 44.57578 26.07109 1390 ft 182 kts 263°
2026-05-05 18:24 44.57446 26.05391 2324 ft 178 kts 262°
2026-05-05 18:24 44.57297 26.03539 2688 ft 205 kts 263°
2026-05-05 18:24 44.57128 26.01494 3124 ft 215 kts 263°
2026-05-05 18:24 44.57176 25.99350 3477 ft 233 kts 289°
2026-05-05 18:25 44.58122 25.97438 3820 ft 254 kts 321°
2026-05-05 18:25 44.59150 25.96621 4214 ft 261 kts 341°
2026-05-05 18:25 44.61543 25.96587 5274 ft 266 kts 18°
2026-05-05 18:25 44.63101 25.97954 6141 ft 269 kts 45°
2026-05-05 18:26 44.64067 26.00206 6922 ft 274 kts 70°
2026-05-05 18:26 44.64345 26.02877 7693 ft 279 kts 85°
2026-05-05 18:26 44.64373 26.05622 8464 ft 282 kts 87°
2026-05-05 18:26 44.64358 26.08394 9251 ft 285 kts 87°
2026-05-05 18:27 44.64334 26.11199 10015 ft 288 kts 86°
2026-05-05 18:27 44.64315 26.14025 10462 ft 302 kts 86°
2026-05-05 18:27 44.64304 26.17083 10631 ft 324 kts 86°
2026-05-05 18:27 44.64296 26.20354 10802 ft 345 kts 86°
2026-05-05 18:28 44.64282 26.27387 11647 ft 367 kts 86°
2026-05-05 18:28 44.64273 26.30982 12413 ft 367 kts 86°
2026-05-05 18:28 44.64264 26.34572 13175 ft 368 kts 86°
2026-05-05 18:29 44.64256 26.38176 13876 ft 370 kts 86°
2026-05-05 18:29 44.64248 26.41799 14468 ft 373 kts 87°
2026-05-05 18:29 44.64240 26.45470 15009 ft 378 kts 87°
2026-05-05 18:29 44.64232 26.49182 15537 ft 382 kts 87°
2026-05-05 18:30 44.64222 26.52888 16101 ft 385 kts 87°
2026-05-05 18:30 44.64210 26.56668 16647 ft 389 kts 88°
2026-05-05 18:30 44.64197 26.60499 17193 ft 393 kts 88°
2026-05-05 18:30 44.64182 26.64349 17722 ft 396 kts 88°
2026-05-05 18:31 44.64166 26.68236 18255 ft 400 kts 88°
2026-05-05 18:31 44.64149 26.72157 18723 ft 403 kts 88°
2026-05-05 18:31 44.64130 26.76112 19214 ft 405 kts 88°
2026-05-05 18:31 44.64110 26.80076 19697 ft 407 kts 88°
2026-05-05 18:32 44.64089 26.84062 20152 ft 410 kts 88°
2026-05-05 18:32 44.64066 26.88080 20608 ft 413 kts 88°
2026-05-05 18:32 44.64039 26.92128 21069 ft 415 kts 89°
2026-05-05 18:32 44.63616 26.96114 21451 ft 424 kts 105°
2026-05-05 18:33 44.62342 26.99882 21877 ft 432 kts 121°
2026-05-05 18:33 44.60331 27.03052 22306 ft 439 kts 136°
2026-05-05 18:33 44.58026 27.05880 22730 ft 442 kts 136°
2026-05-05 18:33 44.55686 27.08695 23111 ft 445 kts 137°
2026-05-05 18:34 44.53322 27.11536 23485 ft 448 kts 137°
2026-05-05 18:34 44.50955 27.14397 23823 ft 451 kts 136°
2026-05-05 18:34 44.48583 27.17286 24150 ft 453 kts 136°
2026-05-05 18:34 44.46197 27.20206 24480 ft 455 kts 136°
2026-05-05 18:35 44.43809 27.23138 24803 ft 457 kts 136°
2026-05-05 18:35 44.41445 27.26045 25113 ft 459 kts 136°
2026-05-05 18:35 44.39039 27.29003 25407 ft 461 kts 136°
2026-05-05 18:35 44.36613 27.31982 25716 ft 463 kts 136°
2026-05-05 18:36 44.34187 27.34959 26016 ft 465 kts 136°
2026-05-05 18:36 44.31749 27.37945 26310 ft 467 kts 136°
2026-05-05 18:36 44.29297 27.40944 26600 ft 469 kts 137°
2026-05-05 18:36 44.26839 27.43947 26888 ft 471 kts 137°
2026-05-05 18:37 44.24369 27.46960 27169 ft 472 kts 137°
2026-05-05 18:37 44.21894 27.49976 27457 ft 474 kts 137°
2026-05-05 18:37 44.19407 27.53004 27726 ft 475 kts 137°
2026-05-05 18:37 44.16913 27.56036 27984 ft 477 kts 137°
2026-05-05 18:38 44.14407 27.59079 28329 ft 476 kts 138°
2026-05-05 18:38 44.11946 27.62063 28750 ft 474 kts 138°
2026-05-05 18:38 44.09462 27.65073 29173 ft 472 kts 138°
2026-05-05 18:38 44.06976 27.68082 29522 ft 472 kts 138°
2026-05-05 18:39 44.04496 27.71080 29848 ft 472 kts 139°
2026-05-05 18:39 44.02017 27.74073 30212 ft 471 kts 139°
2026-05-05 18:39 43.99546 27.77053 30579 ft 468 kts 139°
2026-05-05 18:39 43.97084 27.80019 30903 ft 467 kts 139°
2026-05-05 18:40 43.94625 27.82979 31153 ft 468 kts 139°
2026-05-05 18:40 43.92191 27.85905 31384 ft 468 kts 139°
2026-05-05 18:40 43.89726 27.88865 31658 ft 467 kts 139°
2026-05-05 18:40 43.87268 27.91813 31952 ft 466 kts 139°
2026-05-05 18:41 43.84815 27.94751 32249 ft 465 kts 139°
2026-05-05 18:41 43.82367 27.97680 32536 ft 464 kts 139°
2026-05-05 18:41 43.79922 28.00602 32789 ft 464 kts 139°
2026-05-05 18:41 43.77478 28.03521 33058 ft 463 kts 139°
2026-05-05 18:42 43.75038 28.06430 33334 ft 462 kts 139°
2026-05-05 18:42 43.72599 28.09335 33565 ft 463 kts 139°
2026-05-05 18:42 43.70187 28.12206 33777 ft 463 kts 139°
2026-05-05 18:42 43.67748 28.15105 34012 ft 463 kts 138°
2026-05-05 18:43 43.65306 28.18005 34214 ft 462 kts 138°
2026-05-05 18:43 43.62864 28.20901 34373 ft 463 kts 138°
2026-05-05 18:43 43.60414 28.23804 34509 ft 465 kts 138°
2026-05-05 18:43 43.57957 28.26711 34670 ft 465 kts 138°
2026-05-05 18:44 43.55500 28.29616 34869 ft 465 kts 138°
2026-05-05 18:44 43.53043 28.32516 35034 ft 465 kts 138°
2026-05-05 18:44 43.48104 28.38340 35067 ft 468 kts 138°
2026-05-05 18:45 43.43162 28.44153 35076 ft 465 kts 138°
2026-05-05 18:45 43.38283 28.49880 35080 ft 462 kts 138°
2026-05-05 18:46 43.33846 28.56189 35086 ft 457 kts 123°
2026-05-05 18:46 43.30940 28.63877 35090 ft 453 kts 109°
2026-05-05 18:47 43.28711 28.71985 35081 ft 454 kts 108°
2026-05-05 18:47 43.26491 28.80049 35087 ft 456 kts 109°
2026-05-05 18:48 43.24206 28.88189 35082 ft 458 kts 109°
2026-05-05 18:48 43.21887 28.96359 35083 ft 460 kts 109°
2026-05-05 18:49 43.19550 29.04547 35082 ft 462 kts 109°
2026-05-05 18:49 43.17201 29.12755 35083 ft 463 kts 109°
2026-05-05 18:50 43.14839 29.20986 35079 ft 464 kts 109°
2026-05-05 18:50 43.12489 29.29149 35077 ft 464 kts 109°
2026-05-05 18:51 43.10119 29.37355 35077 ft 463 kts 109°
2026-05-05 18:51 43.07744 29.45550 35075 ft 463 kts 109°
2026-05-05 18:52 43.05366 29.53729 35077 ft 462 kts 109°
2026-05-05 18:52 43.02985 29.61896 35074 ft 461 kts 109°
2026-05-05 18:53 43.00606 29.70026 35078 ft 460 kts 109°
2026-05-05 18:53 42.98223 29.78145 35079 ft 460 kts 109°
2026-05-05 18:54 42.95854 29.86191 35071 ft 459 kts 109°
2026-05-05 18:54 42.93468 29.94269 35080 ft 459 kts 109°
2026-05-05 18:55 42.91074 30.02349 35068 ft 459 kts 109°
2026-05-05 18:55 42.88677 30.10416 35071 ft 459 kts 109°
2026-05-05 18:56 42.86287 30.18434 35074 ft 459 kts 109°
2026-05-05 18:56 42.83908 30.26387 35066 ft 459 kts 109°
2026-05-05 18:57 42.81489 30.34453 35070 ft 459 kts 109°
2026-05-05 18:57 42.79063 30.42517 35066 ft 460 kts 109°
2026-05-05 18:58 42.76629 30.50586 35068 ft 460 kts 109°
2026-05-05 18:58 42.74240 30.58670 35063 ft 459 kts 104°
2026-05-05 18:59 42.73022 30.67051 35070 ft 453 kts 94°
2026-05-05 18:59 42.72230 30.75567 35065 ft 454 kts 94°
2026-05-05 19:00 42.71415 30.84079 35063 ft 454 kts 94°
2026-05-05 19:00 42.70557 30.92602 35060 ft 454 kts 94°
2026-05-05 19:01 42.69681 31.01100 35073 ft 454 kts 95°
2026-05-05 19:01 42.68799 31.09564 35066 ft 454 kts 95°
2026-05-05 19:02 42.67908 31.18071 35060 ft 454 kts 95°
2026-05-05 19:02 42.67012 31.26569 35061 ft 454 kts 95°
2026-05-05 19:03 42.66117 31.35005 35062 ft 454 kts 95°
2026-05-05 19:03 42.65361 31.42078 35061 ft 453 kts 95°
2026-05-05 19:04 42.64449 31.50554 35059 ft 453 kts 95°
2026-05-05 19:04 42.63531 31.59023 35062 ft 453 kts 95°
2026-05-05 19:05 42.62607 31.67500 35065 ft 453 kts 95°
2026-05-05 19:05 42.61682 31.75916 35060 ft 453 kts 95°
2026-05-05 19:06 42.60745 31.84387 35058 ft 454 kts 95°
2026-05-05 19:06 42.59803 31.92854 35057 ft 454 kts 95°
2026-05-05 19:07 42.58851 32.01347 35060 ft 454 kts 95°
2026-05-05 19:07 42.57804 32.09814 35059 ft 455 kts 95°
2026-05-05 19:08 42.56831 32.18298 35060 ft 455 kts 95°
2026-05-05 19:08 42.55880 32.26760 35057 ft 456 kts 95°
2026-05-05 19:09 42.54907 32.35271 35059 ft 456 kts 95°
2026-05-05 19:09 42.53925 32.43731 35055 ft 457 kts 95°
2026-05-05 19:10 42.52926 32.52252 35056 ft 458 kts 95°
2026-05-05 19:10 42.51921 32.60778 35056 ft 458 kts 95°
2026-05-05 19:11 42.50908 32.69317 35056 ft 459 kts 95°
2026-05-05 19:11 42.49893 32.77822 35065 ft 459 kts 95°
2026-05-05 19:12 42.48864 32.86384 35050 ft 459 kts 95°
2026-05-05 19:12 42.47829 32.94938 35058 ft 459 kts 95°
2026-05-05 19:13 42.46795 33.03441 35059 ft 459 kts 96°
2026-05-05 19:13 42.45751 33.11969 35051 ft 459 kts 96°
2026-05-05 19:14 42.44706 33.20502 35059 ft 459 kts 96°
2026-05-05 19:14 42.43662 33.29035 35056 ft 459 kts 96°
2026-05-05 19:15 42.42610 33.37581 35056 ft 459 kts 96°
2026-05-05 19:15 42.41557 33.46030 35060 ft 459 kts 96°
2026-05-05 19:16 42.40476 33.54534 35059 ft 458 kts 96°
2026-05-05 19:16 42.39390 33.63029 35060 ft 458 kts 97°
2026-05-05 19:17 42.38298 33.71536 35058 ft 458 kts 97°
2026-05-05 19:17 42.37201 33.80041 35058 ft 458 kts 97°
2026-05-05 19:18 42.36100 33.88532 35059 ft 458 kts 97°
2026-05-05 19:18 42.34993 33.97021 35057 ft 458 kts 97°
2026-05-05 19:19 42.33888 34.05468 35067 ft 459 kts 97°
2026-05-05 19:19 42.32769 34.13971 35064 ft 459 kts 97°
2026-05-05 19:20 42.31645 34.22471 35064 ft 459 kts 97°
2026-05-05 19:20 42.30515 34.30966 35052 ft 460 kts 97°
2026-05-05 19:21 42.29378 34.39460 35063 ft 460 kts 98°
2026-05-05 19:21 42.28225 34.47922 35054 ft 460 kts 98°